IU7URP-13 Weather Reports


time (UTC)temp
C
wind
direction
speed
KPH
gust
KPH
rain 1hr
cm
rain 24hr
cm
rain mn
cm
humidity
%
barometer
mb
20260503230133 12 0.0 0.0 0.00 0.00 0.00 99 1021.3
20260503224131 13 0.0 0.0 0.00 0.00 0.00 99 1021.2
20260503222130 13 0.0 0.0 0.00 0.00 0.00 99 1021.3
20260503220129 13 0.0 0.0 0.00 0.00 0.00 99 1021.1
20260503214125 12 0.0 0.0 0.00 0.00 0.00 99 1021.0
20260503212124 13 0.0 0.0 0.00 0.00 0.00 99 1020.9
20260503210122 15 0.0 0.0 0.00 0.00 0.00 99 1020.6
20260503204120 15 0.0 0.0 0.00 0.00 0.00 99 1020.5
20260503202119 15 0.0 0.0 0.00 0.00 0.00 99 1020.6
20260503200117 15 0.0 0.0 0.00 0.00 0.00 85 1020.5
20260503200021 15 0.0 0.0 0.00 0.00 0.00 85 1020.5
20260503194015 15 0.0 0.0 0.00 0.00 0.00 89 1020.5
20260503192013 16 0.0 0.0 0.00 0.00 0.00 78 1020.4
20260503190011 16 0.0 0.0 0.00 0.00 0.00 69 1020.3
20260503184010 15 0.0 0.0 0.00 0.00 0.00 82 1020.2
20260503182008 16 0.0 0.0 0.00 0.00 0.00 67 1019.9
20260503180006 16 0.0 0.0 0.00 0.00 0.00 64 1019.8
20260503174005 17 0.0 0.0 0.00 0.00 0.00 51 1019.5
20260503172004 19 0.0 0.0 0.00 0.00 0.00 39 1019.3
20260503171530 19 0.0 0.0 0.00 0.00 0.00 37 1019.3
20260503150751 20 0.0 0.0 0.00 0.00 0.00 37 1019.4
20260503130120 20 0.0 0.0 0.00 0.00 0.00 45 1019.7
20260503110648 20 0.0 0.0 0.00 0.00 0.00 52 1019.9
20260503080430 19 0.0 0.0 0.00 0.00 0.00 99 1019.9
20260503072427 18 0.0 0.0 0.00 0.00 0.00 99 1020.3
20260503070426 18 0.0 0.0 0.00 0.00 0.00 99 1020.1
20260503054421 16 0.0 0.0 0.00 0.00 0.00 99 1020.2
20260503053947 15 0.0 0.0 0.00 0.00 0.00 99 1020.2
20260503051946 15 0.0 0.0 0.00 0.00 0.00 99 1020.4
20260503045945 15 0.0 0.0 0.00 0.00 0.00 99 1020.4
20260503043943 14 0.0 0.0 0.00 0.00 0.00 99 1020.4
20260503041942 12 0.0 0.0 0.00 0.00 0.00 99 1020.4
20260503035941 11 0.0 0.0 0.00 0.00 0.00 99 1020.5
20260503033939 11 0.0 0.0 0.00 0.00 0.00 99 1020.4
20260503031938 11 0.0 0.0 0.00 0.00 0.00 99 1020.5
20260503025936 11 0.0 0.0 0.00 0.00 0.00 99 1020.5
20260503023935 11 0.0 0.0 0.00 0.00 0.00 99 1020.8
20260503021934 11 0.0 0.0 0.00 0.00 0.00 99 1020.9
20260503015932 11 0.0 0.0 0.00 0.00 0.00 99 1021.1
20260503013931 10 0.0 0.0 0.00 0.00 0.00 99 1021.2
20260503011930 11 0.0 0.0 0.00 0.00 0.00 99 1021.4
20260503005928 10 0.0 0.0 0.00 0.00 0.00 99 1021.4
20260503003927 11 0.0 0.0 0.00 0.00 0.00 99 1021.4
20260503001925 11 0.0 0.0 0.00 0.00 0.00 99 1021.5
20260502235924 11 0.0 0.0 0.00 0.00 0.00 99 1021.8
20260502233923 11 0.0 0.0 0.00 0.00 0.00 99 1022.1
20260502231921 11 0.0 0.0 0.00 0.00 0.00 99 1022.1